Weather History for KONA - October, 2013

Change the Weather History Date:

Saturday, October 26, 2013

  Actual Average Record
Temperature  
Mean Temperature 43 °F -  
Max Temperature 53 °F 59 °F 77 °F (1992)
Min Temperature 33 °F 41 °F 32 °F (1997)
Degree Days  
Heating Degree Days 22    
Moisture  
Dew Point 32 °F    
Average Humidity 62    
Maximum Humidity 87    
Minimum Humidity 47    
Precipitation  
Precipitation 0.00 in - - ()
Sea Level Pressure  
Sea Level Pressure 29.97 in    
Wind  
Wind Speed 12 mph (NW)    
Max Wind Speed 20 mph    
Max Gust Speed 29 mph    
Visibility 10 miles    
Events      
Averages and records for this station are not official NWS values.
T = Trace of Precipitation, MM = Missing Value Source: NWS Daily Summary

Daily Weather History Graph

Daily Weather History Graph

Search for Another Location

Airport or City:

Trip Planner

Search our weather history database for the weather conditions in past years. The results will help you decide how hot, cold, wet, or windy it might be!

Date:

Astronomy

Oct. 26, 2013 Rise Set
Actual Time 7:35 AM CDT 6:04 PM CDT
Civil Twilight 7:06 AM CDT 6:34 PM CDT
Nautical Twilight 6:32 AM CDT 7:08 PM CDT
Astronomical Twilight 5:58 AM CDT 7:41 PM CDT
Moon No Moon Rise 1:53 PM CDT (10/26)
Length of Visible Light 11h 28m
Length of Day
10h 29m
Waning Gibbous, 53% of the Moon is Illuminated
Oct 26
Waning Gibbous
Oct 26
Last Quarter
Nov 3
New
Nov 9
First Quarter
Nov 17
Full

Hourly Weather History & Observations

Time (CDT) Temp. Windchill Dew Point Humidity Pressure Visibility Wind Dir Wind Speed Gust Speed Precip Events Conditions
12:11 AM 53.6 °F - 33.8 °F 47% 29.80 in 10.0 mi WSW 17.3 mph 27.6 mph N/A   Overcast
12:31 AM 53.6 °F - 35.6 °F 51% 29.80 in 10.0 mi West 17.3 mph 23.0 mph N/A   Scattered Clouds
12:51 AM 51.8 °F - 33.8 °F 50% 29.79 in 10.0 mi WSW 10.4 mph 18.4 mph N/A   Clear
1:11 AM 51.8 °F - 33.8 °F 50% 29.78 in 10.0 mi WSW 11.5 mph 20.7 mph N/A   Clear
1:31 AM 51.8 °F - 35.6 °F 54% 29.79 in 10.0 mi West 6.9 mph 17.3 mph N/A   Clear
1:51 AM 50.0 °F - 35.6 °F 58% 29.77 in 10.0 mi WSW 9.2 mph 17.3 mph N/A   Clear
2:11 AM 50.0 °F - 35.6 °F 58% 29.77 in 10.0 mi WSW 8.1 mph - N/A   Clear
2:31 AM 50.0 °F - 35.6 °F 58% 29.78 in 10.0 mi West 5.8 mph 17.3 mph N/A   Clear
2:52 AM 50.0 °F - 35.6 °F 58% 29.78 in 10.0 mi West 9.2 mph 18.4 mph N/A   Clear
3:11 AM 50.0 °F - 37.4 °F 62% 29.78 in 10.0 mi West 10.4 mph 19.6 mph N/A   Clear
3:31 AM 50.0 °F - 35.6 °F 58% 29.78 in 10.0 mi West 10.4 mph 20.7 mph N/A   Clear
3:52 AM 48.2 °F - 35.6 °F 62% 29.79 in 10.0 mi WNW 13.8 mph 23.0 mph N/A   Clear
4:11 AM 48.2 °F - 37.4 °F 66% 29.79 in 10.0 mi NW 9.2 mph 17.3 mph N/A   Clear
4:31 AM 48.2 °F - 37.4 °F 66% 29.80 in 10.0 mi WNW 11.5 mph - N/A   Clear
4:52 AM 48.2 °F - 35.6 °F 62% 29.82 in 10.0 mi WNW 11.5 mph - N/A   Clear
5:11 AM 46.4 °F 41.9 °F 35.6 °F 66% 29.82 in 10.0 mi WNW 9.2 mph - N/A   Clear
5:31 AM 46.4 °F 41.5 °F 32.0 °F 57% 29.83 in 10.0 mi WNW 10.4 mph 16.1 mph N/A   Clear
5:52 AM 46.4 °F 40.7 °F 33.8 °F 62% 29.85 in 10.0 mi WNW 12.7 mph 18.4 mph N/A   Clear
6:11 AM 42.8 °F 35.4 °F 30.2 °F 61% 29.86 in 10.0 mi NW 15.0 mph 21.9 mph N/A   Clear
6:31 AM 42.8 °F 35.1 °F 30.2 °F 61% 29.86 in 10.0 mi NW 16.1 mph 24.2 mph N/A   Scattered Clouds
6:51 AM 42.8 °F 34.8 °F 30.2 °F 61% 29.88 in 10.0 mi NW 17.3 mph 28.8 mph N/A   Scattered Clouds
7:11 AM 42.8 °F 36.2 °F 30.2 °F 61% 29.89 in 10.0 mi NW 12.7 mph 21.9 mph N/A   Mostly Cloudy
7:32 AM 42.8 °F 35.8 °F 30.2 °F 61% 29.90 in 10.0 mi NW 13.8 mph 24.2 mph N/A   Overcast
7:51 AM 42.8 °F 34.8 °F 30.2 °F 61% 29.92 in 10.0 mi NW 17.3 mph 23.0 mph N/A   Overcast
8:11 AM 42.8 °F 35.1 °F 32.0 °F 66% 29.93 in 10.0 mi NW 16.1 mph 20.7 mph N/A   Overcast
8:32 AM 42.8 °F 35.1 °F 32.0 °F 66% 29.94 in 10.0 mi NW 16.1 mph 24.2 mph N/A   Overcast
8:51 AM 41.0 °F 33.5 °F 32.0 °F 70% 29.95 in 10.0 mi NNW 13.8 mph 21.9 mph N/A   Overcast
9:11 AM 41.0 °F 32.5 °F 32.0 °F 70% 29.96 in 10.0 mi NW 17.3 mph 24.2 mph N/A   Overcast
9:32 AM 42.8 °F 35.4 °F 32.0 °F 66% 29.97 in 10.0 mi NW 15.0 mph 24.2 mph N/A   Overcast
9:51 AM 42.8 °F 35.1 °F 32.0 °F 66% 29.98 in 10.0 mi NW 16.1 mph 23.0 mph N/A   Overcast
10:11 AM 42.8 °F 36.2 °F 32.0 °F 66% 29.99 in 10.0 mi NW 12.7 mph 21.9 mph N/A   Overcast
10:32 AM 42.8 °F 35.8 °F 32.0 °F 66% 29.99 in 10.0 mi NNW 13.8 mph 19.6 mph N/A   Mostly Cloudy
10:51 AM 44.6 °F 37.4 °F 32.0 °F 61% 30.00 in 10.0 mi NW 16.1 mph 21.9 mph N/A   Mostly Cloudy
11:11 AM 44.6 °F 37.8 °F 32.0 °F 61% 30.01 in 10.0 mi NW 15.0 mph 25.3 mph N/A   Mostly Cloudy
11:32 AM 46.4 °F 40.4 °F 32.0 °F 57% 30.02 in 10.0 mi NW 13.8 mph 25.3 mph N/A   Mostly Cloudy
11:51 AM 48.2 °F - 32.0 °F 54% 30.02 in 10.0 mi NW 15.0 mph 23.0 mph N/A   Mostly Cloudy
12:12 PM 48.2 °F - 32.0 °F 54% 30.03 in 10.0 mi NNW 18.4 mph 25.3 mph N/A   Scattered Clouds
12:31 PM 48.2 °F - 32.0 °F 54% 30.03 in 10.0 mi NNW 19.6 mph 25.3 mph N/A   Scattered Clouds
12:51 PM 48.2 °F - 32.0 °F 54% 30.03 in 10.0 mi NW 16.1 mph 25.3 mph N/A   Clear
1:12 PM 48.2 °F - 32.0 °F 54% 30.04 in 10.0 mi NNW 16.1 mph 19.6 mph N/A   Scattered Clouds
1:31 PM 48.2 °F - 32.0 °F 54% 30.04 in 10.0 mi NW 12.7 mph 20.7 mph N/A   Mostly Cloudy
1:51 PM 48.2 °F - 32.0 °F 54% 30.04 in 10.0 mi NW 15.0 mph 25.3 mph N/A   Mostly Cloudy
2:12 PM 48.2 °F - 32.0 °F 54% 30.05 in 10.0 mi NW 16.1 mph - N/A   Mostly Cloudy
2:31 PM 46.4 °F 39.8 °F 30.2 °F 53% 30.05 in 10.0 mi NW 16.1 mph 25.3 mph N/A   Mostly Cloudy
2:51 PM 48.2 °F - 32.0 °F 54% 30.05 in 10.0 mi NNW 16.1 mph 24.2 mph N/A   Scattered Clouds
3:11 PM 48.2 °F - 30.2 °F 50% 30.05 in 10.0 mi NNW 15.0 mph - N/A   Scattered Clouds
3:31 PM 48.2 °F - 32.0 °F 54% 30.06 in 10.0 mi NW 13.8 mph 20.7 mph N/A   Clear
3:51 PM 48.2 °F - 30.2 °F 50% 30.06 in 10.0 mi NW 13.8 mph 20.7 mph N/A   Clear
4:11 PM 48.2 °F - 32.0 °F 54% 30.07 in 10.0 mi NW 13.8 mph - N/A   Clear
4:31 PM 48.2 °F - 30.2 °F 50% 30.07 in 10.0 mi NW 10.4 mph 18.4 mph N/A   Clear
4:51 PM 48.2 °F - 32.0 °F 54% 30.07 in 10.0 mi NW 10.4 mph 17.3 mph N/A   Clear
5:11 PM 48.2 °F - 32.0 °F 54% 30.07 in 10.0 mi NNW 9.2 mph - N/A   Scattered Clouds
5:31 PM 48.2 °F - 30.2 °F 50% 30.07 in 10.0 mi NW 15.0 mph 19.6 mph N/A   Overcast
5:52 PM 46.4 °F 42.4 °F 30.2 °F 53% 30.07 in 10.0 mi NW 8.1 mph - N/A   Overcast
6:11 PM 42.8 °F 37.5 °F 28.4 °F 57% 30.07 in 10.0 mi NW 9.2 mph - N/A   Mostly Cloudy
6:31 PM 41.0 °F 37.1 °F 28.4 °F 61% 30.08 in 10.0 mi NW 5.8 mph - N/A   Scattered Clouds
6:52 PM 41.0 °F 39.0 °F 28.4 °F 61% 30.08 in 10.0 mi WNW 3.5 mph - N/A   Clear
7:11 PM 42.8 °F - 28.4 °F 57% 30.09 in 10.0 mi Calm Calm - N/A   Mostly Cloudy
7:31 PM 41.0 °F - 30.2 °F 65% 30.09 in 10.0 mi Calm Calm - N/A   Overcast
7:51 PM 41.0 °F - 30.2 °F 65% 30.09 in 10.0 mi Calm Calm - N/A   Mostly Cloudy
8:12 PM 41.0 °F - 30.2 °F 65% 30.09 in 10.0 mi Calm Calm - N/A   Scattered Clouds
8:31 PM 39.2 °F - 30.2 °F 70% 30.08 in 10.0 mi Calm Calm - N/A   Mostly Cloudy
8:51 PM 37.4 °F - 30.2 °F 75% 30.08 in 10.0 mi Calm Calm - N/A   Overcast
9:12 PM 37.4 °F - 30.2 °F 75% 30.08 in 10.0 mi Calm Calm - N/A   Mostly Cloudy
9:31 PM 37.4 °F - 30.2 °F 75% 30.08 in 10.0 mi Calm Calm - N/A   Mostly Cloudy
9:51 PM 37.4 °F - 32.0 °F 81% 30.07 in 10.0 mi Calm Calm - N/A   Mostly Cloudy
10:12 PM 37.4 °F - 32.0 °F 81% 30.07 in 10.0 mi Calm Calm - N/A   Overcast
10:31 PM 37.4 °F - 32.0 °F 81% 30.07 in 10.0 mi Calm Calm - N/A   Overcast
10:51 PM 35.6 °F - 32.0 °F 87% 30.07 in 10.0 mi Calm Calm - N/A   Overcast
11:12 PM 33.8 °F - 30.2 °F 87% 30.07 in 10.0 mi Calm Calm - N/A   Scattered Clouds
11:31 PM 35.6 °F - 32.0 °F 87% 30.07 in 10.0 mi Calm Calm - N/A   Clear
11:51 PM 35.6 °F - 32.0 °F 87% 30.06 in 10.0 mi Calm Calm - N/A   Clear